Location: Newark
(44.3681°N, 100.3364°W)
Time: 13:35:35
(UTC+00:00)

Explorer 7 - Pass Details

Date: 19 February 2020
Orbit: 485 x 679 km, 50.3° (Epoch: 05 April)

Event Time Altitude Azimuth Distance (km) Brightness Sun altitude
Rises 22:39:02 0° 284° (WNW) 2,834 11.1 14.9°
Reaches altitude 10° 22:41:32 10° 293° (WNW) 1,896 10.1 14.5°
Maximum altitude 22:45:31 36° 1° (N) 898 7.8 13.9°
Drops below altitude 10° 22:49:17 10° 69° (ENE) 1,784 8.9 13.3°
Sets 22:51:34 0° 78° (ENE) 2,643 9.7 13.0°
